Regional Weather Roundup
Issued by NWS

Home | Current Version | Previous Version | Text Only | Print | Product List | Glossary Off
Versions: 1 2 3 4 5 6 7 8 9 10 11 12 13 14 15 16 17 18 19 20 21 22 23 24 25 26 27 28 29 30 31 32 33 34 35 36 37 38 39 40 41 42 43 44 45 46 47 48 49 50

055
ASUS43 KFSD 191710
RWRSD

WEATHER ROUNDUP FOR SOUTH DAKOTA
NATIONAL WEATHER SERVICE SIOUX FALLS SD
1200 PM CDT THU OCT 19 2017

NOTE: "FAIR" INDICATES FEW OR NO CLOUDS BELOW 12,000 FEET WITH NO
SIGNIFICANT WEATHER AND/OR OBSTRUCTIONS TO VISIBILITY.


SDZ001>005-009-010-012>017-191800-
NORTHWEST AND NORTH CENTRAL SOUTH DAKOTA

CITY           SKY/WX    TMP DP  RH WIND       PRES   REMARKS
BUFFALO          N/A     70  27  20 W5        29.77F
FAITH            N/A     69  28  21 SW9       29.83F
MOBRIDGE       SUNNY     62  41  46 SW8       29.81F
$$

SDZ012>016-024>037-041>051-057-063-072>074-191800-
SOUTHWEST AND SOUTH CENTRAL SOUTH DAKOTA

CITY           SKY/WX    TMP DP  RH WIND       PRES   REMARKS
RAPID CTY ARPT SUNNY     72  33  24 SE8       29.86F
PIERRE         SUNNY     70  39  32 S12       29.84F
CUSTER         SUNNY     65  18  16 W10       30.00F
ELLSWORTH AFB  SUNNY     76  25  15 S3        29.85F
PHILIP         SUNNY     72  34  24 SW14      29.84F
PINE RIDGE     SUNNY     69  31  24 SW8       29.93F
SPEARFISH      FAIR      70  32  24 CALM      29.89F
WINNER         FAIR      69  41  36 S22G31    29.90F
$$

SDZ004>011-016>023-039-040-191800-
NORTHEAST SOUTH DAKOTA

CITY           SKY/WX    TMP DP  RH WIND       PRES   REMARKS
ABERDEEN       SUNNY     64  39  39 S20G26    29.87F
WATERTOWN      SUNNY     63  41  44 S22G29    29.94S
BROOKINGS      SUNNY     62  39  42 S20G28    29.97F
SISSETON         N/A     69  39  33 S29G41    29.87F
$$

SDZ017-020-022-023-036>040-048>070-191800-
SOUTHEAST SOUTH DAKOTA

CITY           SKY/WX    TMP DP  RH WIND       PRES   REMARKS
SIOUX FALLS    MOSUNNY   66  45  46 S14       30.02F
HURON          SUNNY     63  40  42 S16G23    29.93F
CHAMBERLAIN    SUNNY     69  42  37 S15       29.91F
MITCHELL       SUNNY     66  43  43 S15       29.97F
YANKTON        SUNNY     68  50  52 S14       30.01F
$$

ABBREVIATIONS USED IN REMARKS
   TC - TEMPERATURE IN CELSIUS
  WCI - WIND CHILL INDEX
   HX - HEAT INDEX
  VSB - VISIBILITY





USA.gov is the U.S. government's official web portal to all federal, state and local government web resources and services.